Tehachapi, CA

8:42 AM PST on December 05, 2016 (GMT -0800)
Tehachapi Municipal

Weather History for KTSP - August, 2013

Change the Weather History Date:

Thursday, August 29, 2013

  Actual Average Record
Temperature  
Mean Temperature 70 °F -  
Max Temperature 86 °F 86 °F 91 °F (2011)
Min Temperature 55 °F 53 °F 51 °F (2016)
Cooling Degree Days 6    
Growing Degree Days 20 (Base 50)    
Moisture  
Dew Point 48 °F    
Average Humidity 45    
Maximum Humidity 67    
Minimum Humidity 23    
Precipitation  
Precipitation 0.00 in - - ()
Sea Level Pressure  
Sea Level Pressure 30.15 in    
Wind  
Wind Speed 6 mph (NW)    
Max Wind Speed 18 mph    
Max Gust Speed 23 mph    
Visibility 10 miles    
Events      
Averages and records for this station are not official NWS values.
T = Trace of Precipitation, MM = Missing Value Source: NWS Daily Summary

Daily Weather History Graph

Daily Weather History Graph

Search for Another Location

Airport or City:

Trip Planner

Search our weather history database for the weather conditions in past years. The results will help you decide how hot, cold, wet, or windy it might be!

Date:

Astronomy

Aug. 29, 2013 Rise Set
Actual Time 6:24 AM PDT 7:24 PM PDT
Civil Twilight 5:58 AM PDT 7:50 PM PDT
Nautical Twilight 5:27 AM PDT 8:20 PM PDT
Astronomical Twilight 4:55 AM PDT 8:52 PM PDT
Moon 12:26 AM PDT (8/29) 2:50 PM PDT (8/29)
Length of Visible Light 13h 51m
Length of Day
12h 59m
Last Quarter, 37% of the Moon is Illuminated
Aug 29
Last Quarter
Sep 5
New
Sep 12
First Quarter
Sep 19
Full
Sep 26
Last Quarter

Hourly Weather History & Observations

Time (PDT) Temp. Dew Point Humidity Pressure Visibility Wind Dir Wind Speed Gust Speed Precip Events Conditions
12:15 AM 60.8 °F 48.2 °F 63% 30.11 in 10.0 mi East 4.6 mph - N/A   Clear
12:35 AM 59.0 °F 46.4 °F 63% 30.11 in 10.0 mi Calm Calm - N/A   Clear
12:55 AM 59.0 °F 46.4 °F 63% 30.12 in 10.0 mi SSE 4.6 mph - N/A   Clear
1:15 AM 60.8 °F 46.4 °F 59% 30.12 in 10.0 mi Calm Calm - N/A   Clear
1:35 AM 59.0 °F 44.6 °F 59% 30.12 in 10.0 mi Calm Calm - N/A   Clear
1:55 AM 59.0 °F 46.4 °F 63% 30.12 in 10.0 mi East 3.5 mph - N/A   Clear
2:15 AM 57.2 °F 44.6 °F 63% 30.12 in 10.0 mi Calm Calm - N/A   Clear
2:35 AM 59.0 °F 44.6 °F 59% 30.12 in 10.0 mi Calm Calm - N/A   Clear
2:55 AM 57.2 °F 44.6 °F 63% 30.12 in 10.0 mi Calm Calm - N/A   Clear
3:15 AM 57.2 °F 44.6 °F 63% 30.11 in 10.0 mi Calm Calm - N/A   Clear
3:35 AM 57.2 °F 44.6 °F 63% 30.11 in 10.0 mi Calm Calm - N/A   Clear
3:55 AM 57.2 °F 44.6 °F 63% 30.11 in 10.0 mi Calm Calm - N/A   Clear
4:15 AM 55.4 °F 44.6 °F 67% 30.11 in 10.0 mi Calm Calm - N/A   Clear
4:35 AM 57.2 °F 44.6 °F 63% 30.11 in 10.0 mi Calm Calm - N/A   Clear
4:55 AM 55.4 °F 44.6 °F 67% 30.11 in 10.0 mi SE 5.8 mph - N/A   Clear
5:15 AM 57.2 °F 44.6 °F 63% 30.12 in 10.0 mi NE 3.5 mph - N/A   Clear
5:35 AM 57.2 °F 44.6 °F 63% 30.12 in 10.0 mi Calm Calm - N/A   Clear
5:55 AM 57.2 °F 44.6 °F 63% 30.12 in 10.0 mi Calm Calm - N/A   Clear
6:15 AM 55.4 °F 44.6 °F 67% 30.13 in 10.0 mi Calm Calm - N/A   Clear
6:35 AM 55.4 °F 44.6 °F 67% 30.14 in 10.0 mi Calm Calm - N/A   Clear
6:55 AM 57.2 °F 44.6 °F 63% 30.15 in 10.0 mi ESE 3.5 mph - N/A   Clear
7:15 AM 59.0 °F 46.4 °F 63% 30.16 in 10.0 mi Calm Calm - N/A   Clear
7:35 AM 62.6 °F 46.4 °F 55% 30.16 in 8.0 mi Calm Calm - N/A   Clear
7:55 AM 66.2 °F 46.4 °F 49% 30.16 in 8.0 mi Calm Calm - N/A   Clear
8:15 AM 68.0 °F 48.2 °F 49% 30.16 in 10.0 mi WSW 3.5 mph - N/A   Clear
8:35 AM 71.6 °F 50.0 °F 46% 30.16 in 10.0 mi NW 8.1 mph - N/A   Clear
8:55 AM 73.4 °F 50.0 °F 44% 30.16 in 10.0 mi NW 6.9 mph - N/A   Clear
9:15 AM 75.2 °F 50.0 °F 41% 30.16 in 10.0 mi NW 9.2 mph - N/A   Clear
9:35 AM 77.0 °F 50.0 °F 39% 30.16 in 10.0 mi NW 11.5 mph - N/A   Clear
9:55 AM 77.0 °F 48.2 °F 36% 30.17 in 10.0 mi NNW 8.1 mph - N/A   Clear
10:15 AM 80.6 °F 48.2 °F 32% 30.17 in 10.0 mi NW 11.5 mph - N/A   Clear
10:35 AM 80.6 °F 48.2 °F 32% 30.17 in 9.0 mi NW 9.2 mph - N/A   Clear
10:55 AM 82.4 °F 48.2 °F 30% 30.17 in 9.0 mi NW 8.1 mph - N/A   Clear
11:15 AM 82.4 °F 48.2 °F 30% 30.17 in 10.0 mi NW 8.1 mph - N/A   Clear
11:35 AM 84.2 °F 48.2 °F 29% 30.17 in 9.0 mi NW 10.4 mph - N/A   Clear
11:55 AM 84.2 °F 48.2 °F 29% 30.16 in 10.0 mi NW 13.8 mph - N/A   Clear
12:15 PM 86.0 °F 48.2 °F 27% 30.16 in 10.0 mi NW 12.7 mph 19.6 mph N/A   Clear
12:35 PM 86.0 °F 48.2 °F 27% 30.16 in 10.0 mi NW 16.1 mph 20.7 mph N/A   Clear
12:55 PM 86.0 °F 48.2 °F 27% 30.15 in 10.0 mi NW 16.1 mph 21.9 mph N/A   Clear
1:15 PM 86.0 °F 46.4 °F 25% 30.15 in 10.0 mi NW 18.4 mph 23.0 mph N/A   Clear
1:35 PM 86.0 °F 48.2 °F 27% 30.15 in 10.0 mi NW 18.4 mph 21.9 mph N/A   Clear
1:55 PM 86.0 °F 48.2 °F 27% 30.15 in 10.0 mi NW 17.3 mph 20.7 mph N/A   Clear
2:15 PM 86.0 °F 48.2 °F 27% 30.14 in 10.0 mi NW 17.3 mph - N/A   Clear
2:35 PM 86.0 °F 46.4 °F 25% 30.14 in 10.0 mi NW 18.4 mph - N/A   Clear
2:55 PM 86.0 °F 46.4 °F 25% 30.14 in 10.0 mi NW 17.3 mph 20.7 mph N/A   Clear
3:15 PM 86.0 °F 46.4 °F 25% 30.14 in 10.0 mi NW 17.3 mph - N/A   Clear
3:35 PM 86.0 °F 44.6 °F 23% 30.14 in 10.0 mi NW 16.1 mph 21.9 mph N/A   Clear
3:55 PM 86.0 °F 46.4 °F 25% 30.13 in 10.0 mi NW 17.3 mph 23.0 mph N/A   Clear
4:15 PM 86.0 °F 46.4 °F 25% 30.13 in 10.0 mi NW 17.3 mph - N/A   Clear
4:35 PM 84.2 °F 46.4 °F 27% 30.13 in 10.0 mi NW 18.4 mph - N/A   Clear
4:55 PM 84.2 °F 50.0 °F 30% 30.13 in 10.0 mi NW 15.0 mph 20.7 mph N/A   Clear
5:15 PM 82.4 °F 50.0 °F 32% 30.13 in 10.0 mi NW 15.0 mph 21.9 mph N/A   Clear
5:35 PM 82.4 °F 50.0 °F 32% 30.13 in 10.0 mi NW 13.8 mph - N/A   Clear
5:55 PM 80.6 °F 50.0 °F 34% 30.13 in 10.0 mi NW 13.8 mph 21.9 mph N/A   Clear
6:15 PM 80.6 °F 50.0 °F 34% 30.13 in 10.0 mi NW 15.0 mph - N/A   Clear
6:35 PM 78.8 °F 50.0 °F 36% 30.13 in 10.0 mi WNW 12.7 mph - N/A   Clear
6:55 PM 77.0 °F 51.8 °F 41% 30.14 in 10.0 mi NW 10.4 mph - N/A   Clear
7:15 PM 77.0 °F 51.8 °F 41% 30.14 in 10.0 mi WNW 12.7 mph - N/A   Clear
7:35 PM 75.2 °F 51.8 °F 44% 30.15 in 10.0 mi WNW 8.1 mph - N/A   Clear
7:55 PM 75.2 °F 51.8 °F 44% 30.15 in 10.0 mi WNW 9.2 mph - N/A   Clear
8:15 PM 73.4 °F 51.8 °F 47% 30.16 in 10.0 mi WNW 8.1 mph - N/A   Clear
8:35 PM 73.4 °F 51.8 °F 47% 30.17 in 10.0 mi NW 9.2 mph - N/A   Clear
8:55 PM 73.4 °F 51.8 °F 47% 30.18 in 10.0 mi NW 5.8 mph - N/A   Clear
9:15 PM 71.6 °F 51.8 °F 50% 30.18 in 10.0 mi NW 6.9 mph - N/A   Clear
9:35 PM 71.6 °F 51.8 °F 50% 30.19 in 10.0 mi NW 4.6 mph - N/A   Clear
9:55 PM 69.8 °F 51.8 °F 53% 30.19 in 10.0 mi WNW 6.9 mph - N/A   Clear
10:15 PM 71.6 °F 51.8 °F 50% 30.19 in 10.0 mi WNW 5.8 mph - N/A   Clear
10:55 PM 66.2 °F 50.0 °F 56% 30.19 in 10.0 mi West 6.9 mph - N/A   Clear
11:15 PM 66.2 °F 50.0 °F 56% 30.20 in 10.0 mi West 5.8 mph - N/A   Clear
11:35 PM 66.2 °F 50.0 °F 56% 30.20 in 10.0 mi West 5.8 mph - N/A   Clear
11:55 PM 68.0 °F 51.8 °F 56% 30.20 in 10.0 mi West 6.9 mph - N/A   Clear